Weather History for KSZL - December, 2014

Change the Weather History Date:

Monday, December 1, 2014

  Actual Average Record
Temperature  
Mean Temperature 22 °F -  
Max Temperature 27 °F 47 °F 67 °F (2012)
Min Temperature 17 °F 31 °F 12 °F (2006)
Degree Days  
Heating Degree Days 43    
Moisture  
Dew Point 5 °F    
Average Humidity 51    
Maximum Humidity 64    
Minimum Humidity 33    
Precipitation  
Precipitation 0.00 in - - ()
Sea Level Pressure  
Sea Level Pressure 30.59 in    
Wind  
Wind Speed 13 mph (NNE)    
Max Wind Speed 18 mph    
Max Gust Speed 24 mph    
Visibility 10 miles    
Events      
Averages and records for this station are not official NWS values.
T = Trace of Precipitation, MM = Missing Value Source: NWS Daily Summary

Daily Weather History Graph

Daily Weather History Graph

Search for Another Location

Airport or City:

Trip Planner

Search our weather history database for the weather conditions in past years. The results will help you decide how hot, cold, wet, or windy it might be!

Date:

Astronomy

Dec. 01, 2014 Rise Set
Actual Time 7:13 AM CST 4:53 PM CST
Civil Twilight 6:43 AM CST 5:22 PM CST
Nautical Twilight 6:11 AM CST 5:55 PM CST
Astronomical Twilight 5:38 AM CST 6:27 PM CST
Moon 1:56 PM CST (12/1) 1:54 AM CST (12/1)
Length of Visible Light 10h 38m
Length of Day
9h 39m
Waxing Gibbous, 75% of the Moon is Illuminated
Dec 1
Waxing Gibbous
Dec 6
Full
Dec 14
Last Quarter
Dec 21
New
Dec 28
First Quarter

Hourly Weather History & Observations

Time (CST) Temp. Windchill Dew Point Humidity Pressure Visibility Wind Dir Wind Speed Gust Speed Precip Events Conditions
12:58 AM 21.2 °F 8.3 °F 9.5 °F 61% 30.46 in 10.0 mi NNE 13.8 mph 23.0 mph N/A   Scattered Clouds
1:58 AM 20.7 °F 7.1 °F 9.3 °F 62% 30.51 in 10.0 mi NNE 15.0 mph - N/A   Mostly Cloudy
2:58 AM 20.1 °F 7.5 °F 8.1 °F 60% 30.55 in 10.0 mi North 12.7 mph - N/A   Scattered Clouds
3:58 AM 19.0 °F 5.0 °F 5.9 °F 57% 30.56 in 10.0 mi NNE 15.0 mph 21.9 mph N/A   Mostly Cloudy
4:58 AM 18.0 °F 4.2 °F 5.4 °F 58% 30.59 in 10.0 mi NNE 13.8 mph - N/A   Scattered Clouds
5:58 AM 17.6 °F 3.2 °F 4.3 °F 56% 30.61 in 10.0 mi NNE 15.0 mph - N/A   Mostly Cloudy
6:58 AM 17.6 °F 3.7 °F 4.6 °F 57% 30.63 in 10.0 mi North 13.8 mph - N/A   Mostly Cloudy
7:58 AM 18.7 °F 4.6 °F 4.6 °F 54% 30.66 in 10.0 mi North 15.0 mph - N/A   Mostly Cloudy
8:58 AM 19.8 °F 6.5 °F 3.0 °F 48% 30.66 in 10.0 mi NNE 13.8 mph - N/A   Mostly Cloudy
9:58 AM 21.6 °F 6.9 °F 1.9 °F 43% 30.70 in 10.0 mi NNE 18.4 mph - N/A   Mostly Cloudy
10:58 AM 24.6 °F 10.9 °F 1.2 °F 36% 30.68 in 10.0 mi NNE 18.4 mph 24.2 mph N/A   Mostly Cloudy
11:58 AM 25.7 °F 13.5 °F 1.0 °F 35% 30.66 in 10.0 mi NNE 15.0 mph 20.7 mph N/A   Mostly Cloudy
12:58 PM 27.9 °F 15.5 °F 2.3 °F 34% 30.63 in 10.0 mi NNE 17.3 mph 21.9 mph N/A   Scattered Clouds
1:58 PM 27.5 °F 16.3 °F 2.8 °F 35% 30.62 in 10.0 mi North 13.8 mph 23.0 mph N/A   Scattered Clouds
2:58 PM 27.3 °F 17.1 °F 1.8 °F 33% 30.62 in 10.0 mi NE 11.5 mph - N/A   Partly Cloudy
3:58 PM 25.2 °F 15.7 °F 2.3 °F 37% 30.61 in 10.0 mi NNE 9.2 mph - N/A   Scattered Clouds
4:58 PM 23.5 °F 14.5 °F 3.2 °F 42% 30.61 in 10.0 mi NNE 8.1 mph - N/A   Partly Cloudy
5:58 PM 20.5 °F 14.0 °F 5.2 °F 52% 30.61 in 10.0 mi NNE 4.6 mph - N/A   Partly Cloudy
6:58 PM 18.9 °F 10.8 °F 6.4 °F 58% 30.59 in 10.0 mi NE 5.8 mph - N/A   Partly Cloudy
7:58 PM 19.4 °F 10.4 °F 5.7 °F 55% 30.57 in 10.0 mi NE 6.9 mph - N/A   Clear
8:58 PM 18.5 °F 10.4 °F 5.9 °F 58% 30.56 in 10.0 mi NE 5.8 mph - N/A   Clear
9:58 PM 18.0 °F 8.7 °F 7.5 °F 64% 30.52 in 10.0 mi NE 6.9 mph - N/A   Mostly Cloudy
10:59 PM 19.9 °F 11.1 °F 7.5 °F 59% 30.52 in 10.0 mi NE 6.9 mph - N/A   Mostly Cloudy
11:38 PM 19.4 °F 9.5 °F 6.8 °F 58% 30.47 in 10.0 mi NE 8.1 mph - N/A   Overcast
11:55 PM 20.1 °F 11.3 °F 7.5 °F 58% 30.52 in 10.0 mi NE 6.9 mph - N/A   Overcast